Wind_Speed
16 16 15 15 14 14 14 14 13 14 14 14 14 13 13 12 12 11 11 10 9 9 8 8 8 8 7 7 6 6 5 4 4 4 4 4 4 4 4 4 5 5 6
17 17 16 16 16 15 15 15 15 15 14 14 14 14 14 14 13 13 12 12 11 10 9 9 9 9 8 8 7 7 6 6 5 5 5 5 5 5 5 5 6 6 7
19 19 18 18 17 17 16 16 16 16 16 15 15 15 15 15 14 14 13 12 12 11 11 11 10 10 10 9 8 8 8 7 7 6 6 6 6 6 6 6 7 7 7
21 21 20 20 19 19 18 18 18 18 18 17 17 16 16 16 16 15 14 14 13 12 12 12 12 11 11 10 10 10 9 9 8 8 8 8 7 7 7 7 7 7 8
22 22 22 22 21 20 20 20 20 20 19 19 19 18 18 17 17 16 16 15 14 14 13 13 13 13 12 12 12 11 11 11 10 10 9 9 9 9 8 8 8 8 9
22 22 22 23 23 22 21 21 21 21 21 21 20 20 19 19 18 18 18 17 16 15 15 15 15 14 14 14 14 13 13 12 12 11 11 10 10 10 9 9 9 10 10
23 23 23 23 24 24 23 23 23 23 23 22 22 22 21 20 20 20 19 18 18 17 16 16 16 16 15 15 15 15 15 14 13 12 12 11 11 11 11 11 11 11 11
24 24 24 24 24 25 25 25 24 24 24 24 24 23 23 22 21 21 20 20 19 18 18 18 18 17 17 17 16 16 16 16 15 14 14 13 13 13 12 12 12 12 12
25 25 25 25 25 26 26 26 26 26 25 25 25 24 24 23 23 23 22 21 21 20 20 19 19 19 18 18 18 18 17 17 17 16 16 15 14 14 14 14 14 14 14
27 27 26 26 26 26 27 28 28 27 26 26 26 26 26 25 25 24 23 23 22 22 21 21 21 20 20 20 19 19 19 19 19 18 17 17 17 16 16 15 15 16 16
28 28 28 27 27 27 28 29 29 29 28 28 28 27 27 27 26 26 25 25 24 24 23 23 22 22 21 21 21 21 20 20 20 20 19 19 18 18 18 17 17 17 17
30 29 29 29 29 28 29 29 30 30 30 30 29 29 28 29 28 28 27 26 26 26 25 24 24 23 23 23 22 22 22 22 22 22 22 21 21 20 20 19 19 19 19
31 31 31 30 30 30 30 30 31 31 31 31 30 30 29 29 29 29 28 28 27 27 27 26 26 25 25 25 24 24 24 24 24 24 23 23 23 22 22 22 21 21 21
33 33 33 32 32 32 32 31 32 32 32 32 31 30 30 30 30 30 30 29 29 29 28 28 28 28 27 27 27 26 26 26 26 26 26 25 25 24 24 24 24 23 23
35 34 33 34 33 33 33 33 32 32 33 33 33 32 32 32 31 31 31 31 31 30 30 30 30 30 30 29 29 29 28 28 28 28 28 27 27 26 26 26 26 26 26
36 35 35 35 34 34 34 34 34 33 34 34 34 34 33 33 32 32 32 32 32 32 32 32 32 32 32 32 32 31 31 31 30 30 30 30 29 28 28 28 28 28 27
37 37 37 36 35 35 35 35 35 35 35 35 35 35 34 34 34 33 33 33 33 33 34 34 33 34 34 33 34 33 33 33 33 33 32 32 31 31 30 30 30 30 29
37 38 38 37 36 36 36 37 37 36 36 35 35 36 36 35 35 35 35 35 34 35 35 35 35 35 35 35 35 35 36 36 35 35 35 34 33 33 33 32 32 32 31
39 38 39 38 37 37 37 38 38 37 37 37 36 36 36 36 36 36 36 36 36 36 36 36 36 36 37 37 37 37 37 37 37 36 36 36 35 35 35 34 34 33 33
39 38 37 37 37 37 37 38 39 38 38 38 37 37 37 37 37 37 37 37 37 37 37 37 37 38 39 39 39 38 38 38 38 38 37 37 37 36 36 36 36 35 35
39 38 38 37 37 37 37 38 38 38 38 39 38 37 38 38 38 38 38 38 38 37 37 37 38 39 40 40 40 40 40 40 39 39 39 39 38 38 37 37 37 37 37
39 39 38 38 38 37 37 38 38 38 38 38 37 37 38 38 39 39 39 38 38 38 38 38 39 40 40 40 41 41 41 41 41 41 40 40 40 40 39 39 38 39 39
40 39 39 38 38 38 38 38 38 38 38 38 37 37 37 38 38 39 38 39 39 39 39 39 40 40 40 41 42 42 42 42 42 42 41 41 42 41 41 41 41 41 41
40 40 40 39 38 38 37 38 38 38 38 37 37 37 37 37 38 38 38 39 39 39 40 40 41 41 41 41 42 43 43 43 43 43 43 43 43 43 43 43 43 43 43
40 40 40 39 38 37 37 38 38 38 38 38 38 38 37 37 37 38 38 38 38 38 39 40 40 41 42 43 43 44 44 45 44 44 44 44 44 45 45 45 45 45 45
40 40 40 39 38 38 38 38 38 38 38 38 37 38 37 37 37 38 38 38 38 38 38 39 40 41 42 43 44 45 46 46 45 46 46 46 46 46 46 46 47 47 47
Wind_Direction
238 236 237 237 236 235 234 232 231 230 229 230 229 228 227 224 221 221 221 221 221 222 224 222 221 223 224 224 223 228 234 241 247 258 270 283 291 298 301 299 299 300 300
239 238 239 238 238 238 236 235 233 233 232 232 232 231 230 228 226 225 225 224 226 230 230 228 227 228 227 227 229 233 237 242 250 257 267 274 279 285 291 296 296 297 298
240 240 240 241 241 240 239 237 235 235 235 235 233 232 232 231 230 229 228 228 230 232 232 232 233 232 232 233 236 240 242 245 250 255 262 268 273 279 284 289 290 293 295
241 241 241 242 243 243 242 240 238 237 237 237 236 234 234 234 233 232 232 233 235 236 235 235 235 236 237 238 242 244 245 248 253 256 261 266 270 275 280 284 286 288 291
242 242 242 242 243 244 244 242 241 239 238 238 238 237 236 237 236 236 236 236 237 238 238 239 238 239 242 242 244 247 249 252 254 258 263 266 269 271 275 280 283 284 287
244 244 244 244 244 244 244 243 242 240 240 240 240 239 239 239 240 239 238 238 239 240 241 242 242 242 243 243 245 247 250 252 255 258 261 264 266 269 273 277 280 282 284
246 246 246 246 246 245 245 245 243 242 242 242 242 240 240 240 240 240 240 240 240 241 242 244 245 245 245 245 246 248 250 252 255 257 259 262 263 268 274 278 280 280 282
248 247 248 248 248 247 246 245 245 245 244 243 243 242 241 241 241 241 241 242 242 242 244 245 246 247 247 247 247 248 250 253 254 256 258 260 264 268 272 276 279 278 278
248 248 248 249 249 248 247 245 245 245 245 244 244 244 242 241 241 242 243 243 244 245 245 245 246 247 248 248 248 250 251 253 256 257 258 260 264 269 271 273 275 276 277
249 249 249 250 250 249 247 246 245 244 245 245 245 244 244 243 243 243 244 244 245 246 247 246 247 248 249 249 249 251 253 254 256 258 260 262 265 268 271 273 274 275 276
249 249 249 250 249 250 247 246 245 244 245 245 245 246 246 245 244 244 244 245 245 246 247 247 248 250 250 250 251 252 254 256 257 258 260 262 264 267 269 270 273 275 276
249 248 248 249 249 250 248 247 246 245 245 246 246 246 246 246 246 246 246 246 246 246 247 247 248 250 250 251 251 252 254 256 258 259 260 262 264 266 268 270 271 273 275
249 248 247 248 249 250 249 248 247 246 246 246 246 246 247 248 248 247 247 247 246 247 248 248 249 250 252 253 254 253 254 256 258 260 261 263 264 266 268 269 271 272 274
249 247 247 248 248 249 249 248 247 246 247 246 246 245 247 249 249 249 248 248 248 248 249 249 251 251 253 254 255 256 256 257 258 260 262 263 265 267 269 270 271 272 274
249 248 247 248 248 248 249 248 247 247 247 246 246 246 246 248 250 250 249 249 248 249 249 250 252 252 253 254 256 257 258 259 259 260 262 264 265 267 269 271 271 272 273
249 248 248 248 248 249 249 247 247 246 247 248 247 247 247 248 249 250 250 250 249 250 251 252 253 253 254 255 256 258 258 259 260 260 262 263 265 267 269 270 271 272 273
249 249 248 250 249 249 248 246 246 247 247 249 247 246 247 247 249 250 251 251 251 251 252 253 254 254 254 256 256 257 258 259 259 260 262 263 264 266 268 270 271 271 272
250 248 248 249 249 248 247 247 247 248 247 247 247 246 247 247 249 250 252 251 252 252 253 254 254 255 255 257 258 258 259 259 259 260 261 263 265 266 267 269 271 271 271
250 248 248 248 248 246 247 247 247 247 246 245 246 246 247 247 248 250 252 253 252 253 254 254 254 255 256 257 258 258 258 258 259 260 261 263 265 266 267 268 269 270 271
249 248 248 247 246 246 246 246 246 247 245 244 246 247 247 248 249 249 251 253 252 253 255 255 255 256 257 258 258 258 258 258 259 260 262 263 264 265 266 267 268 269 270
249 248 247 246 244 245 246 247 247 247 247 246 247 248 248 249 249 251 253 254 253 254 255 256 256 257 258 259 259 258 257 258 259 260 262 263 262 264 265 266 268 269 270
248 246 246 246 245 245 246 247 248 248 248 246 248 248 248 249 251 252 253 255 255 255 255 256 257 258 258 259 258 258 257 258 259 260 260 262 263 264 265 266 267 269 270
247 246 246 246 245 246 246 247 248 247 248 247 248 248 248 249 251 253 255 256 257 257 257 258 258 258 258 259 258 258 258 258 259 260 260 261 263 264 265 266 267 268 269
245 245 245 246 245 245 246 247 246 246 248 248 249 249 249 250 252 254 256 257 259 260 259 259 259 259 259 259 258 258 258 258 259 259 260 260 262 263 264 266 266 268 269
243 243 244 245 244 244 246 246 247 247 248 248 249 249 249 251 253 254 256 258 260 261 261 261 261 261 260 260 259 258 258 259 260 260 261 262 263 264 264 265 266 267 268
241 241 242 244 244 244 245 246 247 247 248 248 249 250 250 251 253 255 257 259 260 261 262 262 262 261 261 261 259 259 258 259 259 260 261 262 263 264 265 265 266 267 268
Height
5850 5851 5852 5853 5854 5855 5855 5856 5857 5858 5859 5859 5860 5861 5862 5862 5863 5863 5864 5865 5865 5866 5866 5866 5867 5868 5868 5869 5869 5869 5870 5870 5870 5870 5870 5870 5870 5870 5870 5869 5869 5869 5868
5847 5848 5849 5850 5851 5852 5853 5854 5855 5856 5856 5857 5858 5859 5860 5861 5861 5862 5862 5863 5864 5864 5864 5865 5865 5866 5866 5867 5868 5868 5868 5869 5869 5869 5869 5869 5869 5869 5869 5868 5868 5868 5867
5844 5845 5846 5847 5848 5849 5850 5851 5852 5853 5854 5855 5856 5857 5858 5859 5859 5860 5861 5861 5862 5862 5863 5863 5864 5864 5865 5866 5866 5867 5867 5867 5867 5867 5867 5867 5867 5867 5867 5867 5867 5867 5866
5840 5841 5842 5843 5845 5846 5847 5848 5849 5850 5851 5852 5853 5854 5855 5856 5857 5858 5859 5859 5860 5861 5861 5861 5862 5863 5863 5864 5864 5865 5865 5866 5866 5866 5866 5866 5866 5866 5866 5865 5865 5865 5865
5836 5837 5838 5840 5841 5842 5843 5845 5846 5847 5848 5849 5850 5851 5853 5854 5854 5855 5856 5857 5858 5858 5859 5859 5860 5861 5861 5862 5862 5863 5863 5864 5864 5864 5864 5864 5864 5864 5864 5864 5863 5863 5863
5832 5833 5834 5835 5837 5838 5839 5841 5842 5843 5845 5846 5847 5848 5849 5850 5852 5852 5853 5854 5855 5856 5856 5857 5857 5858 5859 5859 5860 5860 5861 5861 5862 5862 5862 5862 5862 5862 5862 5862 5861 5861 5861
5827 5829 5830 5831 5832 5834 5835 5837 5838 5839 5841 5842 5843 5844 5846 5847 5848 5849 5850 5851 5852 5853 5853 5854 5855 5856 5856 5857 5857 5858 5859 5859 5859 5859 5860 5860 5860 5860 5860 5859 5859 5859 5858
5822 5824 5825 5826 5827 5829 5830 5832 5833 5835 5836 5838 5839 5840 5842 5843 5844 5845 5846 5847 5848 5849 5850 5851 5852 5853 5853 5854 5854 5855 5856 5856 5856 5857 5857 5857 5857 5857 5857 5857 5856 5856 5856
5817 5819 5820 5821 5822 5824 5825 5827 5828 5830 5831 5833 5834 5836 5837 5839 5840 5841 5842 5844 5845 5846 5847 5848 5848 5849 5850 5850 5851 5852 5852 5853 5853 5853 5854 5854 5854 5854 5854 5854 5854 5853 5853
5812 5813 5814 5816 5817 5818 5819 5821 5823 5824 5826 5828 5829 5831 5832 5834 5835 5837 5838 5839 5840 5841 5843 5844 5844 5845 5846 5846 5847 5848 5848 5849 5850 5850 5850 5851 5851 5851 5851 5851 5850 5850 5850
5806 5807 5808 5810 5811 5812 5814 5815 5817 5818 5820 5822 5824 5825 5827 5828 5830 5832 5833 5834 5836 5837 5838 5839 5840 5841 5842 5842 5843 5844 5845 5845 5846 5846 5846 5847 5847 5847 5847 5847 5847 5847 5846
5799 5800 5802 5804 5805 5806 5807 5809 5811 5812 5814 5816 5818 5819 5821 5823 5824 5826 5828 5829 5830 5832 5833 5834 5835 5836 5837 5838 5838 5839 5840 5841 5841 5842 5842 5842 5843 5843 5843 5843 5843 5843 5842
5792 5793 5795 5797 5798 5800 5801 5803 5804 5806 5808 5810 5811 5813 5815 5817 5818 5820 5822 5823 5825 5826 5828 5829 5830 5831 5832 5833 5833 5834 5835 5836 5836 5837 5837 5838 5838 5838 5838 5838 5838 5838 5838
5784 5786 5788 5790 5791 5793 5794 5796 5798 5799 5801 5803 5805 5807 5809 5811 5812 5814 5816 5817 5819 5820 5822 5823 5824 5825 5826 5827 5828 5829 5830 5830 5831 5832 5832 5832 5833 5833 5833 5833 5833 5833 5833
5776 5778 5780 5782 5784 5785 5787 5789 5790 5793 5794 5796 5798 5800 5802 5804 5806 5808 5809 5811 5812 5814 5815 5816 5818 5819 5820 5821 5822 5823 5824 5824 5825 5826 5826 5826 5827 5827 5828 5828 5828 5828 5828
5768 5770 5772 5774 5776 5778 5779 5781 5783 5785 5787 5789 5791 5793 5795 5797 5799 5801 5802 5804 5805 5807 5808 5809 5811 5812 5813 5814 5815 5816 5817 5817 5818 5819 5820 5820 5821 5821 5821 5822 5822 5822 5822
5759 5761 5763 5765 5767 5769 5771 5773 5775 5777 5779 5781 5783 5785 5787 5789 5791 5793 5795 5796 5798 5799 5800 5801 5803 5804 5805 5807 5808 5809 5809 5810 5811 5812 5812 5813 5814 5814 5815 5815 5815 5815 5815
5751 5752 5754 5756 5758 5760 5762 5764 5766 5768 5770 5773 5774 5776 5779 5781 5783 5785 5787 5788 5790 5791 5792 5793 5795 5796 5797 5798 5800 5801 5801 5802 5803 5804 5805 5806 5806 5807 5808 5808 5808 5808 5808
5741 5743 5745 5747 5749 5751 5753 5755 5757 5758 5761 5763 5766 5768 5770 5772 5774 5776 5778 5780 5781 5782 5784 5785 5786 5787 5789 5790 5791 5792 5793 5794 5795 5796 5797 5798 5798 5799 5800 5801 5801 5801 5801
5731 5733 5735 5737 5739 5741 5744 5746 5748 5749 5751 5754 5756 5759 5761 5763 5765 5767 5769 5771 5772 5774 5775 5776 5777 5778 5779 5780 5781 5783 5784 5785 5786 5787 5788 5789 5790 5791 5792 5792 5793 5793 5793
5721 5723 5726 5728 5730 5732 5734 5736 5738 5740 5742 5745 5747 5750 5752 5754 5756 5758 5760 5761 5763 5764 5765 5766 5767 5768 5769 5770 5772 5773 5774 5776 5777 5778 5779 5780 5781 5782 5782 5783 5784 5784 5784
5711 5713 5716 5718 5721 5723 5725 5728 5730 5732 5733 5736 5738 5741 5743 5745 5747 5749 5751 5752 5753 5755 5756 5756 5757 5758 5759 5760 5762 5763 5765 5767 5768 5769 5769 5770 5772 5772 5773 5774 5774 5775 5775
5700 5703 5706 5708 5711 5713 5716 5718 5720 5722 5724 5727 5729 5732 5734 5736 5737 5739 5741 5742 5744 5745 5745 5746 5747 5748 5749 5750 5751 5753 5755 5757 5758 5759 5760 5761 5762 5763 5763 5764 5764 5765 5765
5690 5693 5696 5698 5701 5703 5706 5708 5711 5714 5716 5718 5720 5723 5724 5726 5728 5730 5731 5732 5734 5734 5735 5736 5737 5738 5739 5740 5741 5742 5744 5746 5748 5749 5750 5751 5751 5752 5753 5754 5754 5755 5755
5680 5683 5686 5688 5691 5694 5697 5700 5702 5705 5707 5709 5711 5713 5715 5717 5719 5720 5722 5723 5724 5724 5725 5726 5726 5727 5728 5729 5731 5732 5733 5735 5736 5738 5740 5741 5742 5742 5743 5743 5744 5744 5744
5669 5673 5676 5679 5682 5685 5688 5690 5693 5695 5698 5700 5702 5704 5706 5708 5710 5711 5712 5713 5714 5715 5715 5716 5716 5717 5717 5718 5720 5721 5723 5724 5726 5727 5729 5730 5731 5732 5732 5732 5733 5733 5733